Home   Weather   Pittsburgh   Past weeks

Flag for USA Past Weather in Pittsburgh, Pennsylvania, USA — Yesterday and Last 2 Weeks

Now
67 °F

Cloudy.


Feels Like: 67 °F
Forecast: 55 / 74 °F
Wind: 5 mph from Southwest

Location: Allegheny County Airport

Current Time: May 27, 2017 at 3:39:45 pm

Latest Report: May 27, 2017 at 2:53 pm


Visibility: 10 mi

Pressure: 29.91 "Hg

Humidity: 76%

Dew Point: 59 °F

Location of PittsburghLocation

Past Weather in Pittsburgh — Graph

°F

Pittsburgh Temperature Yesterday

Maximum temperature yesterday: 67 °F (at 4:53 pm)
Minimum temperature yesterday: 56 °F (at 10:13 am)
Average temperature yesterday: 60 °F

High & Low Weather Summary for the Past Weeks

 TemperatureHumidityPressure
High86 °F (May 17, 3:53 pm)91% (May 21, 5:00 pm)30.21 "Hg (May 21, 5:00 pm)
Low43 °F (May 15, 5:53 am)26% (May 15, 3:53 pm)29.46 "Hg (May 25, 3:53 pm)
Average63 °F67%29.89 "Hg
* Reported May 12 2:53 pm — May 27 2:34 pm, Pittsburgh. Weather by CustomWeather, © 2017

Note: Actual official high and low records may vary slightly from our data, if they occured in-between our weather recording intervals... More about our weather records

Advertising

Pittsburgh Weather History for the Previous 24 Hours

Scroll right to see more
 ConditionsComfort  
Time TempWeatherWind HumidityBarometerVisibility
2:34 pm
Sat, May 27
66 °FOvercast.No wind81%29.91 "Hg10 mi
1:53 pm66 °FOvercast.No wind78%29.90 "Hg9 mi
12:53 pm63 °FLow clouds.No wind84%29.91 "Hg2 mi
9:53 am60 °FLight rain. Low clouds.No wind83%29.90 "Hg4 mi
9:20 am59 °FLight rain. Mostly cloudy.3 mph84%29.90 "Hg6 mi
8:53 am57 °FMostly cloudy.No wind90%29.90 "Hg10 mi
7:19 am56 °FLight rain. Fog.No wind90%29.90 "Hg3 mi
6:43 am56 °FRain. Fog.5 mph90%29.89 "Hg2 mi
4:53 am56 °FOvercast.5 mph87%29.88 "Hg10 mi
12:53 am59 °FClear.3 mph75%29.93 "Hg10 mi
11:53 pm
Fri, May 26
61 °FPassing clouds.3 mph67%29.93 "Hg10 mi
10:53 pm62 °FMostly cloudy.No wind67%29.94 "Hg10 mi
9:53 pm61 °FOvercast.5 mph70%29.93 "Hg10 mi
8:53 pm62 °FClear.5 mph67%29.90 "Hg10 mi
7:53 pm65 °FSunny.6 mph61%29.90 "Hg10 mi
6:53 pm66 °FScattered clouds.12 mph59%29.88 "Hg10 mi
5:53 pm66 °FBroken clouds.9 mph61%29.87 "Hg10 mi
4:53 pm67 °FPartly sunny.13 mph59%29.85 "Hg10 mi
3:53 pm65 °FMostly cloudy.9 mph63%29.86 "Hg10 mi
Weather by CustomWeather, © 2017

See weather overviewHow to use our weather pages